Location: Bennemühlen
(52.5740°N, 9.7135°E)
Time: 12:55:14
(UTC+00:00)

ISS - Visible Passes

Search period start: 21 January 2026 00:00
Search period end: 31 January 2026 00:00
Orbit: 413 x 423 km, 51.6° (Epoch: 20 January)

Date Brightness Start Highest point End Pass type
(mag) Time Alt. Az. Time Alt. Az. Time Alt. Az.
21 Jan -3.8 17:41:17 10° W 17:44:37 77° S 17:45:21 51° ESE visible
21 Jan -0.3 19:18:02 10° W 19:18:17 12° W 19:18:17 12° W visible
22 Jan -3.7 16:53:20 10° W 16:56:40 77° S 16:59:23 15° E visible
22 Jan -2.3 18:30:04 10° W 18:32:20 36° WSW 18:32:20 36° WSW visible
23 Jan -3.6 17:42:04 10° W 17:45:23 65° SSW 17:46:22 40° SE visible
23 Jan -0.3 19:19:01 10° W 19:19:18 12° W 19:19:18 12° W visible
24 Jan -3.6 16:54:01 10° W 16:57:22 73° S 17:00:26 12° ESE visible
24 Jan -2.1 18:30:50 10° W 18:33:22 31° SW 18:33:22 31° SW visible
25 Jan -2.8 17:42:41 10° W 17:45:54 43° SSW 17:47:28 24° SE visible
26 Jan -3.1 16:54:33 10° W 16:57:49 54° SSW 17:01:07 10° ESE visible
26 Jan -1.4 18:31:44 10° W 18:34:07 18° SW 18:34:36 18° SSW visible
27 Jan -1.7 17:43:18 10° W 17:46:06 25° SSW 17:48:53 10° SSE visible
28 Jan -2.1 16:54:58 10° W 16:58:01 33° SSW 17:01:04 10° SE visible
29 Jan -0.8 17:44:19 10° WSW 17:46:00 13° SW 17:47:40 10° S visible
30 Jan -0.9 16:55:27 10° W 16:57:54 19° SW 17:00:19 10° SSE visible
